FW8184 Weather Reports


time (UTC)temp
C
wind
direction
speed
KPH
gust
KPH
rain 1hr
cm
rain 24hr
cm
rain mn
cm
humidity
%
barometer
mb
20260510225519 20 330 3.2 9.7 0.00 0.00 0.00 27 1019.7
20260510225021 20 97 1.6 11.3 0.00 0.00 0.00 29 1019.8
20260510224533 20 20 1.6 14.5 0.00 0.00 0.00 27 1019.7
20260510224019 20 340 3.2 14.5 0.00 0.00 0.00 26 1019.8
20260510223521 20 283 3.2 9.7 0.00 0.00 0.00 26 1019.8
20260510223035 20 267 1.6 9.7 0.00 0.00 0.00 27 1019.8
20260510222517 20 44 3.2 12.9 0.00 0.00 0.00 28 1019.8
20260510222020 20 311 3.2 14.5 0.00 0.00 0.00 27 1019.7
20260510221535 20 254 6.4 14.5 0.00 0.00 0.00 26 1019.8
20260510221019 20 227 4.8 14.5 0.00 0.00 0.00 26 1019.8
20260510220517 20 352 4.8 14.5 0.00 0.00 0.00 26 1019.9
20260510220033 20 300 3.2 14.5 0.00 0.00 0.00 25 1019.9
20260510215517 20 96 1.6 9.7 0.00 0.00 0.00 29 1020.1
20260510215019 20 6 3.2 9.7 0.00 0.00 0.00 27 1019.7
20260510214535 20 88 3.2 12.9 0.00 0.00 0.00 25 1019.9
20260510214020 20 292 3.2 12.9 0.00 0.00 0.00 25 1019.9
20260510213521 20 314 4.8 11.3 0.00 0.00 0.00 26 1019.9
20260510213032 20 236 4.8 11.3 0.00 0.00 0.00 25 1019.9
20260510212518 20 297 4.8 12.9 0.00 0.00 0.00 26 1020.0
20260510212018 20 354 4.8 16.1 0.00 0.00 0.00 27 1020.0
20260510211535 20 296 6.4 16.1 0.00 0.00 0.00 26 1019.9
20260510211018 20 276 4.8 17.7 0.00 0.00 0.00 27 1020.0
20260510210517 20 350 4.8 17.7 0.00 0.00 0.00 27 1019.8
20260510210032 20 211 4.8 14.5 0.00 0.00 0.00 26 1019.9
20260510205517 20 261 4.8 14.5 0.00 0.00 0.00 26 1019.8
20260510205018 20 255 4.8 22.5 0.00 0.00 0.00 27 1019.8
20260510204544 20 205 3.2 22.5 0.00 0.00 0.00 25 1019.9
20260510204017 20 278 6.4 22.5 0.00 0.00 0.00 25 1019.9
20260510203518 20 23 1.6 17.7 0.00 0.00 0.00 26 1020.0
20260510203033 20 75 4.8 17.7 0.00 0.00 0.00 24 1020.0
20260510202519 20 38 4.8 16.1 0.00 0.00 0.00 25 1020.0
20260510202022 21 164 6.4 16.1 0.00 0.00 0.00 25 1020.1
20260510201530 21 198 1.6 9.7 0.00 0.00 0.00 29 1019.9
20260510201020 20 202 4.8 9.7 0.00 0.00 0.00 27 1020.0
20260510200518 20 290 4.8 16.1 0.00 0.00 0.00 25 1020.0
20260510200031 21 261 4.8 16.1 0.00 0.00 0.00 25 1020.0
20260510195517 20 204 4.8 16.1 0.00 0.00 0.00 26 1019.9
20260510195018 20 56 4.8 14.5 0.00 0.00 0.00 25 1019.9
20260510194530 20 105 4.8 12.9 0.00 0.00 0.00 24 1019.7
20260510194018 20 264 4.8 12.9 0.00 0.00 0.00 26 1019.8
20260510193518 20 137 6.4 17.7 0.00 0.00 0.00 26 1019.9
20260510193032 20 285 4.8 17.7 0.00 0.00 0.00 29 1019.9
20260510192517 20 115 3.2 16.1 0.00 0.00 0.00 26 1019.8
20260510192017 20 47 4.8 16.1 0.00 0.00 0.00 27 1019.9
20260510191535 21 76 3.2 16.1 0.00 0.00 0.00 27 1019.7
20260510191017 20 222 3.2 14.5 0.00 0.00 0.00 26 1019.7
20260510190521 21 287 6.4 14.5 0.00 0.00 0.00 26 1019.6
20260510190034 21 40 4.8 17.7 0.00 0.00 0.00 27 1019.6
20260510185520 20 259 4.8 17.7 0.00 0.00 0.00 27 1019.8
20260510185019 20 243 3.2 14.5 0.00 0.00 0.00 29 1019.8
20260510184534 20 269 4.8 14.5 0.00 0.00 0.00 27 1019.9
20260510184019 20 283 4.8 11.3 0.00 0.00 0.00 28 1019.6
20260510183518 20 35 3.2 11.3 0.00 0.00 0.00 27 1019.8
20260510183032 20 7 3.2 12.9 0.00 0.00 0.00 30 1019.9
20260510182518 20 285 4.8 12.9 0.00 0.00 0.00 27 1019.8
20260510182017 21 229 4.8 9.7 0.00 0.00 0.00 28 1019.8
20260510181536 20 293 3.2 12.9 0.00 0.00 0.00 27 1019.9
20260510181018 20 18 3.2 12.9 0.00 0.00 0.00 27 1019.9
20260510180518 20 260 4.8 12.9 0.00 0.00 0.00 26 1019.9
20260510180035 20 314 4.8 12.9 0.00 0.00 0.00 28 1019.9
20260510175518 20 244 3.2 9.7 0.00 0.00 0.00 30 1020.0
20260510175019 20 1 3.2 12.9 0.00 0.00 0.00 27 1019.9
20260510174534 20 268 4.8 12.9 0.00 0.00 0.00 25 1020.1
20260510174017 20 49 3.2 11.3 0.00 0.00 0.00 26 1020.1
20260510173518 20 301 4.8 11.3 0.00 0.00 0.00 26 1020.1
20260510173031 20 268 3.2 9.7 0.00 0.00 0.00 25 1020.2
20260510172518 20 220 3.2 8.0 0.00 0.00 0.00 25 1020.1
20260510172018 20 354 3.2 8.0 0.00 0.00 0.00 27 1020.2
20260510171530 19 296 3.2 14.5 0.00 0.00 0.00 28 1020.2
20260510171018 19 243 3.2 14.5 0.00 0.00 0.00 28 1020.2
20260510170517 19 19 4.8 14.5 0.00 0.00 0.00 26 1020.3
20260510170031 19 61 4.8 14.5 0.00 0.00 0.00 30 1020.4
20260510165518 19 301 3.2 14.5 0.00 0.00 0.00 29 1020.4
20260510165017 19 307 3.2 14.5 0.00 0.00 0.00 27 1020.4
20260510164547 19 23 4.8 12.9 0.00 0.00 0.00 27 1020.5
20260510164018 19 264 3.2 9.7 0.00 0.00 0.00 27 1020.4
20260510163517 18 130 3.2 9.7 0.00 0.00 0.00 27 1020.4
20260510163035 18 62 4.8 12.9 0.00 0.00 0.00 27 1020.5
20260510162519 18 39 3.2 12.9 0.00 0.00 0.00 29 1020.3
20260510162017 19 45 4.8 9.7 0.00 0.00 0.00 29 1020.4
20260510161530 19 310 3.2 12.9 0.00 0.00 0.00 27 1020.4
20260510161018 19 123 3.2 12.9 0.00 0.00 0.00 31 1020.3
20260510160518 18 266 3.2 14.5 0.00 0.00 0.00 28 1020.3
20260510160033 18 231 4.8 14.5 0.00 0.00 0.00 30 1020.5
20260510155517 18 244 3.2 12.9 0.00 0.00 0.00 32 1020.2
20260510155019 18 285 6.4 12.9 0.00 0.00 0.00 29 1020.3
20260510154544 18 314 4.8 11.3 0.00 0.00 0.00 30 1020.3
20260510154021 18 29 4.8 11.3 0.00 0.00 0.00 28 1020.2
20260510153517 18 356 3.2 9.7 0.00 0.00 0.00 30 1020.2
20260510153030 18 120 3.2 11.3 0.00 0.00 0.00 31 1020.1
20260510152517 17 21 3.2 12.9 0.00 0.00 0.00 31 1020.0
20260510152014 17 60 3.2 12.9 0.00 0.00 0.00 32 1019.9
20260510151531 17 342 3.2 14.5 0.00 0.00 0.00 33 1019.9
20260510151017 17 229 3.2 14.5 0.00 0.00 0.00 36 1019.9
20260510150521 17 212 4.8 14.5 0.00 0.00 0.00 33 1019.9
20260510150043 17 71 1.6 8.0 0.00 0.00 0.00 34 1020.3
20260510145522 17 64 3.2 9.7 0.00 0.00 0.00 37 1020.3
20260510145018 16 347 3.2 11.3 0.00 0.00 0.00 37 1019.8
20260510144542 16 287 3.2 12.9 0.00 0.00 0.00 41 1019.5
20260510144022 16 250 4.8 12.9 0.00 0.00 0.00 37 1019.6
20260510143518 16 76 3.2 9.7 0.00 0.00 0.00 38 1019.5
20260510143039 16 56 1.6 9.7 0.00 0.00 0.00 40 1019.5
20260510142519 16 96 3.2 9.7 0.00 0.00 0.00 39 1019.5
20260510142018 15 61 1.6 8.0 0.00 0.00 0.00 42 1019.4
20260510141535 15 50 1.6 9.7 0.00 0.00 0.00 43 1019.4
20260510141019 15 66 3.2 9.7 0.00 0.00 0.00 44 1019.4
20260510140517 15 63 1.6 9.7 0.00 0.00 0.00 44 1019.4
20260510140034 14 25 3.2 9.7 0.00 0.00 0.00 44 1019.4
20260510135518 14 46 4.8 9.7 0.00 0.00 0.00 44 1019.5
20260510135017 13 262 1.6 8.0 0.00 0.00 0.00 48 1019.3
20260510134536 13 331 1.6 11.3 0.00 0.00 0.00 49 1019.4
20260510134017 13 92 3.2 11.3 0.00 0.00 0.00 48 1019.5
20260510133519 13 337 0.0 9.7 0.00 0.00 0.00 49 1019.5
20260510133032 13 114 1.6 9.7 0.00 0.00 0.00 49 1019.4
20260510132518 12 305 3.2 9.7 0.00 0.00 0.00 50 1019.3
20260510132019 12 359 3.2 9.7 0.00 0.00 0.00 50 1019.3
20260510131544 12 32 3.2 90.1 0.00 0.00 0.00 51 1019.3
20260510131018 12 52 24.1 101.4 0.00 0.00 0.00 53 1019.2
20260510130518 12 285 54.7 101.4 0.00 0.00 0.00 52 1019.2
20260510130030 11 32 46.7 107.8 0.00 0.00 0.00 54 1019.1
20260510125517 11 96 40.2 107.8 0.00 0.00 0.00 54 1018.9
20260510125017 11 65 25.7 106.2 0.00 0.00 0.00 55 1019.0
20260510124539 11 7 17.7 88.5 0.00 0.00 0.00 56 1019.0
20260510124017 11 85 29.0 86.9 0.00 0.00 0.00 59 1018.7
20260510123517 10 0 1.6 83.7 0.00 0.00 0.00 60 1018.9
20260510123035 10 0 0.0 6.4 0.00 0.00 0.00 60 1018.9
20260510122519 10 40 1.6 6.4 0.00 0.00 0.00 60 1018.7
20260510122018 10 34 0.0 4.8 0.00 0.00 0.00 61 1018.7
20260510121537 9 0 0.0 1.6 0.00 0.00 0.00 63 1018.5
20260510121018 9 0 0.0 1.6 0.00 0.00 0.00 64 1018.4
20260510120518 9 0 0.0 1.6 0.00 0.00 0.00 65 1018.4
20260510120035 9 0 0.0 1.6 0.00 0.00 0.00 64 1018.4
20260510115517 8 359 0.0 1.6 0.00 0.00 0.00 64 1018.0
20260510115018 8 0 0.0 1.6 0.00 0.00 0.00 65 1018.1
20260510114530 8 0 0.0 1.6 0.00 0.00 0.00 64 1017.9
20260510114022 8 27 0.0 1.6 0.00 0.00 0.00 66 1017.6
20260510113517 8 0 0.0 1.6 0.00 0.00 0.00 66 1017.6
20260510113031 8 0 0.0 1.6 0.00 0.00 0.00 66 1017.5
20260510112522 8 0 0.0 1.6 0.00 0.00 0.00 66 1017.5
20260510112017 8 0 0.0 1.6 0.00 0.00 0.00 65 1017.4
20260510111531 8 0 0.0 1.6 0.00 0.00 0.00 63 1017.2
20260510111014 8 0 0.0 1.6 0.00 0.00 0.00 64 1017.4
20260510110518 8 0 0.0 1.6 0.00 0.00 0.00 64 1017.1
20260510110032 9 0 0.0 1.6 0.00 0.00 0.00 64 1017.1
20260510105518 9 0 0.0 1.6 0.00 0.00 0.00 62 1017.2
20260510105019 9 0 0.0 1.6 0.00 0.00 0.00 62 1017.1
20260510104532 9 6 0.0 1.6 0.00 0.00 0.00 63 1017.0
20260510104017 9 0 0.0 1.6 0.00 0.00 0.00 62 1016.8
20260510103517 9 0 0.0 1.6 0.00 0.00 0.00 62 1016.8
20260510103033 10 0 0.0 0.0 0.00 0.00 0.00 63 1016.7
20260510102521 10 0 0.0 1.6 0.00 0.00 0.00 62 1016.6
20260510102020 10 0 0.0 1.6 0.00 0.00 0.00 62 1016.5
20260510101531 10 0 0.0 1.6 0.00 0.00 0.00 59 1016.5
20260510101017 10 0 0.0 1.6 0.00 0.00 0.00 59 1016.3
20260510100518 10 67 0.0 1.6 0.00 0.00 0.00 58 1016.4
20260510100035 10 0 0.0 1.6 0.00 0.00 0.00 58 1016.3
20260510095517 10 25 0.0 1.6 0.00 0.00 0.00 60 1016.1
20260510095017 10 0 0.0 1.6 0.00 0.00 0.00 61 1016.1
20260510094536 10 0 0.0 1.6 0.00 0.00 0.00 60 1015.9
20260510094017 11 0 0.0 1.6 0.00 0.00 0.00 59 1016.0
20260510093518 11 0 0.0 1.6 0.00 0.00 0.00 58 1015.7
20260510093031 11 0 0.0 1.6 0.00 0.00 0.00 56 1015.8
20260510092518 11 0 0.0 1.6 0.00 0.00 0.00 58 1015.3
20260510092017 12 0 0.0 1.6 0.00 0.00 0.00 56 1015.3
20260510091533 12 0 0.0 3.2 0.00 0.00 0.00 55 1015.1
20260510091018 12 0 0.0 3.2 0.00 0.00 0.00 54 1014.9
20260510090517 12 68 0.0 4.8 0.00 0.00 0.00 55 1014.7
20260510090031 12 12 1.6 4.8 0.00 0.00 0.00 56 1014.8
20260510085518 12 96 0.0 4.8 0.00 0.00 0.00 54 1014.7
20260510085017 12 0 1.6 3.2 0.00 0.00 0.00 54 1014.7
20260510084534 13 58 0.0 3.2 0.00 0.00 0.00 53 1014.7
20260510084017 13 80 0.0 4.8 0.00 0.00 0.00 53 1014.6
20260510083520 13 281 0.0 4.8 0.00 0.00 0.00 54 1014.4
20260510083032 13 120 0.0 3.2 0.00 0.00 0.00 54 1014.4
20260510082517 13 64 1.6 3.2 0.00 0.00 0.00 53 1014.3
20260510082019 13 50 0.0 4.8 0.00 0.00 0.00 52 1014.2
20260510081530 13 292 0.0 8.0 0.00 0.00 0.00 52 1014.2
20260510081018 14 24 0.0 8.0 0.00 0.00 0.00 50 1014.3
20260510080518 14 56 1.6 8.0 0.00 0.00 0.00 51 1014.1
20260510080034 14 0 1.6 8.0 0.00 0.00 0.00 52 1014.0
20260510075517 14 143 1.6 8.0 0.00 0.03 0.00 54 1014.0
20260510075017 14 37 1.6 8.0 0.00 0.03 0.00 52 1014.1
20260510074542 15 47 0.0 6.4 0.00 0.03 0.00 53 1014.0
20260510074017 15 240 0.0 6.4 0.00 0.03 0.00 51 1014.1
20260510073517 15 53 1.6 6.4 0.00 0.03 0.00 49 1014.1
20260510073042 15 78 1.6 3.2 0.00 0.03 0.00 50 1014.1
20260510072517 15 58 1.6 4.8 0.00 0.03 0.00 50 1014.1
20260510072020 15 89 0.0 4.8 0.00 0.03 0.00 49 1014.2
20260510071532 15 0 0.0 4.8 0.00 0.03 0.00 50 1014.3
20260510071017 15 4 1.6 4.8 0.00 0.03 0.00 51 1014.3
20260510070518 16 349 1.6 4.8 0.00 0.03 0.00 52 1014.1
20260510070031 16 0 0.0 4.8 0.00 0.03 0.00 52 1014.1
20260510065527 16 62 1.6 3.2 0.00 0.03 0.00 52 1014.0
20260510065017 16 71 1.6 3.2 0.00 0.03 0.00 54 1014.0
20260510064544 16 13 0.0 3.2 0.00 0.03 0.00 57 1014.1
20260510064017 16 48 0.0 3.2 0.00 0.03 0.00 58 1014.1
20260510063517 16 0 0.0 3.2 0.00 0.03 0.00 56 1014.1
20260510063031 16 0 0.0 0.0 0.00 0.03 0.00 56 1014.2
20260510062517 16 0 0.0 1.6 0.00 0.03 0.00 55 1014.1
20260510062017 16 0 0.0 1.6 0.00 0.03 0.00 55 1014.0
20260510061532 16 0 0.0 1.6 0.00 0.03 0.00 54 1014.1
20260510061017 16 0 0.0 1.6 0.00 0.03 0.00 55 1014.2
20260510060517 16 0 0.0 1.6 0.00 0.03 0.00 55 1014.0
20260510060033 16 272 0.0 1.6 0.00 0.03 0.00 53 1014.1
20260510055516 16 0 0.0 1.6 0.00 0.03 0.00 53 1014.0
20260510055017 17 0 0.0 1.6 0.00 0.03 0.00 52 1014.0
20260510054530 17 0 0.0 1.6 0.00 0.03 0.00 52 1014.0
20260510054017 17 287 0.0 3.2 0.00 0.03 0.00 51 1013.6
20260510053520 17 0 0.0 3.2 0.00 0.03 0.00 51 1013.5
20260510053041 17 0 0.0 1.6 0.00 0.03 0.00 51 1013.3
20260510052517 17 288 0.0 1.6 0.00 0.03 0.00 51 1013.2
20260510052017 17 0 0.0 1.6 0.00 0.03 0.00 51 1013.0
20260510051546 17 0 0.0 3.2 0.00 0.03 0.00 51 1013.1
20260510051021 17 0 0.0 3.2 0.00 0.03 0.00 51 1013.1
20260510050518 17 289 0.0 3.2 0.00 0.03 0.00 51 1012.9
20260510050035 17 257 0.0 3.2 0.00 0.03 0.00 51 1012.9
20260510045517 17 0 0.0 3.2 0.00 0.03 0.03 51 1012.9
20260510045017 17 250 0.0 1.6 0.00 0.03 0.03 53 1012.9
20260510044530 17 0 0.0 1.6 0.00 0.03 0.03 54 1012.8
20260510044014 17 250 0.0 1.6 0.00 0.03 0.03 56 1012.9
20260510043518 17 250 0.0 1.6 0.00 0.03 0.03 54 1012.6
20260510043031 17 0 0.0 1.6 0.00 0.03 0.03 54 1012.8
20260510042521 17 250 0.0 1.6 0.00 0.03 0.03 52 1012.5
20260510042019 17 0 0.0 1.6 0.00 0.03 0.03 54 1012.4
20260510041534 17 250 0.0 1.6 0.00 0.03 0.03 52 1012.3
20260510041018 17 0 0.0 1.6 0.00 0.03 0.03 53 1012.3
20260510040517 17 0 0.0 1.6 0.00 0.03 0.03 53 1012.2
20260510040033 17 248 0.0 3.2 0.00 0.03 0.03 52 1012.2
20260510035517 17 0 0.0 3.2 0.00 0.03 0.03 53 1012.2
20260510035022 18 262 0.0 0.0 0.00 0.03 0.03 51 1012.2
20260510034532 18 0 0.0 1.6 0.00 0.03 0.03 53 1012.0
20260510034019 18 0 0.0 1.6 0.00 0.03 0.03 52 1012.1
20260510033517 18 0 0.0 1.6 0.00 0.03 0.03 47 1012.0
20260510033032 18 0 0.0 3.2 0.00 0.03 0.03 49 1012.0
20260510032517 18 250 0.0 6.4 0.00 0.03 0.03 46 1012.0
20260510032018 18 304 0.0 6.4 0.00 0.03 0.03 46 1011.7
20260510031532 18 53 1.6 6.4 0.00 0.03 0.03 48 1011.6
20260510031018 18 23 0.0 4.8 0.00 0.03 0.03 48 1011.5
20260510030518 19 71 1.6 4.8 0.00 0.03 0.03 47 1011.5
20260510030032 19 0 0.0 6.4 0.00 0.03 0.03 47 1011.5
20260510025519 19 329 1.6 6.4 0.00 0.03 0.03 47 1011.4
20260510025020 19 47 1.6 6.4 0.00 0.03 0.03 46 1011.2
20260510024533 19 285 1.6 4.8 0.00 0.03 0.03 47 1011.1
20260510024018 19 26 1.6 4.8 0.00 0.03 0.03 48 1011.0
20260510023518 19 96 0.0 4.8 0.00 0.03 0.03 48 1010.9
20260510023032 19 341 0.0 4.8 0.00 0.03 0.03 48 1010.8
20260510022518 19 296 0.0 3.2 0.00 0.03 0.03 48 1010.6
20260510022017 19 6 0.0 3.2 0.00 0.03 0.03 48 1010.5
20260510021533 19 0 0.0 4.8 0.00 0.03 0.03 48 1010.2
20260510021018 20 51 1.6 4.8 0.00 0.03 0.03 48 1010.0
20260510020517 20 0 0.0 8.0 0.00 0.03 0.03 48 1009.8
20260510020031 20 34 1.6 9.7 0.00 0.03 0.03 46 1009.7
20260510015518 20 48 3.2 9.7 0.00 0.03 0.03 45 1009.5
20260510015017 20 37 1.6 9.7 0.00 0.03 0.03 45 1009.5
20260510014529 20 295 3.2 9.7 0.00 0.03 0.03 45 1009.4
20260510014017 20 51 4.8 9.7 0.00 0.03 0.03 44 1009.1
20260510013517 20 25 1.6 9.7 0.00 0.03 0.03 43 1009.0
20260510013033 20 224 3.2 12.9 0.00 0.03 0.03 43 1008.9
20260510012517 21 27 3.2 12.9 0.00 0.03 0.03 42 1008.9
20260510012014 21 40 4.8 12.9 0.00 0.03 0.03 41 1008.8
20260510011532 21 79 3.2 14.5 0.00 0.03 0.03 41 1008.7
20260510011014 21 72 4.8 14.5 0.00 0.03 0.03 41 1008.7
20260510010515 21 65 4.8 11.3 0.00 0.03 0.03 41 1008.7
20260510010030 20 107 1.6 6.4 0.00 0.03 0.03 46 1008.5
20260510005515 20 356 0.0 1.6 0.00 0.03 0.03 49 1008.4
20260510005017 20 0 0.0 1.6 0.00 0.03 0.03 49 1008.2
20260510004529 20 0 0.0 1.6 0.00 0.03 0.03 50 1008.1
20260510004017 21 0 0.0 0.0 0.00 0.03 0.03 51 1007.9
20260510003514 21 0 0.0 0.0 0.00 0.03 0.03 49 1007.9
20260510003031 21 0 0.0 0.0 0.00 0.03 0.03 50 1007.7
20260510002515 22 0 0.0 0.0 0.00 0.03 0.03 53 1007.6
20260510002015 22 0 0.0 0.0 0.00 0.03 0.03 50 1007.5
20260510001532 23 0 0.0 0.0 0.00 0.03 0.03 46 1007.6
20260510001015 23 0 0.0 1.6 0.00 0.03 0.03 46 1007.4
20260510000514 24 0 0.0 1.6 0.00 0.03 0.03 43 1007.3
20260510000030 24 0 0.0 1.6 0.00 0.03 0.03 38 1007.3
20260509235517 24 0 0.0 3.2 0.00 0.03 0.03 40 1007.2
20260509235014 25 307 0.0 3.2 0.00 0.03 0.03 39 1007.4
20260509234530 25 307 0.0 3.2 0.00 0.03 0.03 37 1007.1
20260509234018 26 303 0.0 3.2 0.00 0.03 0.03 34 1007.2
20260509233514 26 295 0.0 3.2 0.00 0.03 0.03 33 1007.2
20260509233030 26 265 1.6 3.2 0.00 0.03 0.03 32 1007.1
20260509232514 26 155 0.0 3.2 0.00 0.03 0.03 35 1007.1
20260509232016 26 12 1.6 4.8 0.00 0.03 0.03 34 1007.2
20260509231534 26 307 1.6 6.4 0.00 0.03 0.03 34 1007.2
20260509231014 26 259 1.6 6.4 0.00 0.03 0.03 36 1007.2
20260509230514 26 245 1.6 6.4 0.00 0.03 0.03 32 1007.3
20260509230034 26 283 1.6 8.0 0.00 0.03 0.03 31 1007.2